Flag for Greenland Weather past 2 weeks in Upernavik, Greenland

Now
54 °F

Cool.


Feels Like: 53 °F
Forecast: 50 / 59 °F
Wind: 6 mph from Northwest

Location: Jacobshavn Lufthavn

Current Time: Jul 24, 2014 at 6:40:54 PM

Latest Report: Jul 24, 2014 at 5:00 PM


Visibility: 22 mi

Pressure: 29.92 "Hg

Humidity: 49%

Dew point: 35 °F

Location of UpernavikLocation

Historic Weather in Upernavik — Graph

°F

Upernavik temperature yesterday

Maximum temperature yesterday: 60 °F (at 3:00 PM)
Minimum temperature yesterday: 47 °F (at 2:00 AM)
Average temperature yesterday: 55 °F

Past Weeks' High & Low Weather Summary

 TemperatureHumidityPressure
High62 °F (Jul 18, 6:00 PM)100% (Jul 11, 3:00 AM)30.07 "Hg (Jul 11, 3:00 AM)
Low36 °F (Jul 11, 3:00 AM)22% (Jul 18, 5:00 PM)29.67 "Hg (Jul 16, 2:00 AM)
Average47 °F63%29.87 "Hg
* Reported Jul 9 4:00 PM — Jul 24 4:00 PM, Upernavik, Weather by CustomWeather, © 2014

Note: Actual official high and low records may vary slightly from our data, if they occured in-between our weather recording intervals... More about our weather records

Advertising

Upernavik weather history for previous 24 hours

 ConditionsComfort  
Time TempWeatherWind HumidityBarometerVisibility
4:00 PM
Jul 24
54 °FCool.6 mph46%29.93 "Hg19 mi
3:00 PM56 °FRefreshingly cool.7 mph40%29.93 "Hg16 mi
2:00 PM53 °FCool.6 mph44%29.94 "Hg25 mi
1:00 PM52 °FPassing clouds.6 mph53%29.96 "Hg28 mi
12:00 PM55 °FCool.7 mph44%29.96 "Hg25 mi
11:00 AM51 °FScattered clouds.5 mph53%29.97 "Hg25 mi
10:00 AM50 °FPartly sunny.6 mph59%29.98 "Hg25 mi
9:00 AM50 °FPartly sunny.No wind62%29.98 "Hg25 mi
8:00 AM51 °FScattered clouds.No wind65%29.98 "Hg22 mi
7:00 AM48 °FOvercast.No wind74%29.98 "Hg28 mi
6:00 AM48 °FPartly sunny.1 mph77%29.98 "Hg28 mi
5:00 AM49 °FOvercast.No wind74%29.97 "Hg31 mi
4:00 AM49 °FOvercast.No wind74%29.97 "Hg28 mi
3:00 AM49 °FOvercast.No wind74%29.96 "Hg31 mi
2:00 AM50 °FOvercast.No wind68%29.96 "Hg31 mi
1:00 AM51 °FOvercast.No wind71%29.97 "Hg31 mi
12:00 AM52 °FOvercast.No wind69%29.97 "Hg28 mi
11:00 PM
Jul 23
51 °FOvercast.5 mph71%29.96 "Hg31 mi
10:00 PM51 °FOvercast.6 mph67%29.96 "Hg28 mi
9:00 PM56 °FOvercast.No wind56%29.95 "Hg25 mi
8:00 PM56 °FOvercast.1 mph56%29.95 "Hg28 mi
7:00 PM57 °FOvercast.No wind53%29.94 "Hg25 mi
6:00 PM57 °FOvercast.No wind51%29.94 "Hg28 mi
Weather by CustomWeather, © 2014

See weather overviewHow to use our weather pages